FW0864 Weather Reports


Display with metric or nautical units.
time (UTC)temp
F
wind
direction
speed
MPH
gust
MPH
rain 1hr
in
rain 24hr
in
rain mn
in
humidity
%
barometer
mb
20260505082520 55 354 6.0 12.0 0.00 0.00 0.00 78 1011.7
20260505082015 56 4 6.0 11.0 0.00 0.00 0.00 78 1011.7
20260505081516 56 344 4.0 9.0 0.00 0.00 0.00 79 1011.7
20260505081014 56 347 3.0 9.0 0.00 0.00 0.00 79 1011.7
20260505080512 56 345 4.0 9.0 0.00 0.00 0.00 79 1011.7
20260505080033 56 354 3.0 11.0 0.00 0.00 0.00 80 1011.7
20260505075512 56 322 4.0 10.0 0.00 0.00 0.00 80 1011.7
20260505075011 56 296 4.0 8.0 0.00 0.00 0.00 81 1011.6
20260505074510 57 323 3.0 9.0 0.00 0.00 0.00 81 1011.6
20260505074011 57 348 5.0 9.0 0.00 0.00 0.00 81 1011.6
20260505073509 57 339 3.0 11.0 0.00 0.00 0.00 81 1011.7
20260505073013 57 316 5.0 11.0 0.00 0.00 0.00 80 1011.6
20260505072507 57 326 2.0 10.0 0.00 0.00 0.00 80 1011.7
20260505072008 57 344 4.0 10.0 0.00 0.00 0.00 79 1011.7
20260505071508 57 293 3.0 9.0 0.00 0.00 0.00 79 1011.7
20260505071006 58 285 4.0 9.0 0.00 0.00 0.00 79 1011.7
20260505070505 58 260 3.0 6.0 0.00 0.00 0.00 79 1011.7
20260505070005 58 316 2.0 8.0 0.00 0.00 0.00 79 1011.6
20260505065505 58 326 3.0 8.0 0.00 0.00 0.00 79 1011.6
20260505065004 58 316 4.0 8.0 0.00 0.00 0.00 79 1011.6
20260505064504 58 359 3.0 9.0 0.00 0.00 0.00 79 1011.4
20260505064007 58 321 3.0 9.0 0.00 0.00 0.00 79 1011.5
20260505063508 58 301 3.0 9.0 0.00 0.00 0.00 80 1011.4
20260505063005 58 328 2.0 8.0 0.00 0.00 0.00 79 1011.4
20260505062504 58 274 4.0 8.0 0.00 0.00 0.00 79 1011.3
20260505062004 58 335 2.0 7.0 0.00 0.00 0.00 79 1011.4
20260505061509 58 293 2.0 9.0 0.00 0.00 0.00 79 1011.4
20260505061003 58 283 3.0 9.0 0.00 0.00 0.00 78 1011.4
20260505060504 58 284 3.0 6.0 0.00 0.00 0.00 78 1011.5
20260505060003 58 313 3.0 8.0 0.00 0.00 0.00 77 1011.5
20260505055502 58 354 2.0 8.0 0.00 0.00 0.00 76 1011.5
20260505055003 59 340 4.0 8.0 0.00 0.00 0.00 76 1011.6
20260505054502 59 345 4.0 6.0 0.00 0.00 0.00 75 1011.6
20260505054001 59 324 3.0 6.0 0.00 0.00 0.00 75 1011.7
20260505053501 59 346 3.0 8.0 0.00 0.00 0.00 75 1011.7
20260505053001 59 324 2.0 8.0 0.00 0.00 0.00 75 1011.7
20260505052502 59 260 2.0 7.0 0.00 0.00 0.00 75 1011.7
20260505052001 59 303 2.0 6.0 0.00 0.00 0.00 75 1011.7
20260505051501 59 322 3.0 6.0 0.00 0.00 0.00 75 1011.7
20260505051002 59 295 3.0 7.0 0.00 0.00 0.00 75 1011.8
20260505050600 59 274 2.0 5.0 0.00 0.00 0.00 75 1011.8
20260505050128 59 291 1.0 7.0 0.00 0.00 0.00 75 1011.8
20260505041610 59 260 3.0 8.0 0.00 0.00 0.00 74 1011.4
20260505041059 59 341 2.0 8.0 0.00 0.00 0.00 73 1011.4
20260505040601 59 257 1.0 5.0 0.00 0.00 0.00 73 1011.3
20260505035606 59 310 1.0 6.0 0.00 0.00 0.00 73 1011.3
20260505035058 59 287 2.0 6.0 0.00 0.00 0.00 72 1011.3
20260505034558 59 322 2.0 6.0 0.00 0.00 0.00 72 1011.2
20260505034058 59 332 2.0 8.0 0.00 0.00 0.00 72 1011.0
20260505033558 59 326 2.0 8.0 0.00 0.00 0.00 71 1010.9
20260505033059 59 276 3.0 8.0 0.00 0.00 0.00 71 1010.9
20260505032558 59 262 2.0 8.0 0.00 0.00 0.00 71 1010.8
20260505032102 59 331 3.0 8.0 0.00 0.00 0.00 70 1010.8
20260505031600 59 307 3.0 7.0 0.00 0.00 0.00 70 1010.8
20260505031058 59 267 3.0 7.0 0.00 0.00 0.00 69 1010.9
20260505030557 59 293 1.0 4.0 0.00 0.00 0.00 68 1010.9
20260505030057 59 289 2.0 5.0 0.00 0.00 0.00 68 1010.9
20260505025558 59 303 2.0 7.0 0.00 0.00 0.00 67 1011.0
20260505025057 59 276 3.0 7.0 0.00 0.00 0.00 67 1010.9
20260505024557 59 311 1.0 3.0 0.00 0.00 0.00 67 1010.9
20260505024056 59 331 1.0 5.0 0.00 0.00 0.00 67 1011.0
20260505023556 59 315 1.0 4.0 0.00 0.00 0.00 67 1011.0
20260505023057 59 314 1.0 5.0 0.00 0.00 0.00 67 1011.1
20260505022556 59 299 3.0 6.0 0.00 0.00 0.00 67 1011.1
20260505022057 59 303 2.0 6.0 0.00 0.00 0.00 68 1011.0
20260505021557 59 282 3.0 7.0 0.00 0.00 0.00 68 1011.1
20260505021056 60 288 2.0 6.0 0.00 0.00 0.00 69 1011.1
20260505020555 60 335 4.0 6.0 0.00 0.00 0.00 68 1011.1
20260505020055 60 322 2.0 4.0 0.00 0.00 0.00 68 1011.0
20260505015555 60 324 2.0 4.0 0.00 0.00 0.00 67 1010.9
20260505015055 60 266 1.0 6.0 0.00 0.00 0.00 69 1011.0
20260505014611 60 324 1.0 5.0 0.00 0.00 0.00 68 1011.0
20260505014055 60 312 1.0 5.0 0.00 0.00 0.00 69 1011.0
20260505013555 61 335 2.0 5.0 0.00 0.00 0.00 68 1011.1
20260505013055 61 43 2.0 5.0 0.00 0.00 0.00 67 1011.0
20260505012555 61 332 2.0 6.0 0.00 0.00 0.00 65 1011.1
20260505012055 61 336 3.0 6.0 0.00 0.00 0.00 65 1011.1
20260505011603 61 350 2.0 6.0 0.00 0.00 0.00 65 1011.1
20260505011055 62 345 1.0 5.0 0.00 0.00 0.00 65 1011.1
20260505010554 62 24 2.0 5.0 0.00 0.00 0.00 64 1011.1
20260505010056 62 33 1.0 4.0 0.00 0.00 0.00 65 1011.2
20260505005554 62 354 1.0 4.0 0.00 0.00 0.00 64 1011.3
20260505005054 62 81 1.0 4.0 0.00 0.00 0.00 64 1011.3
20260505004554 62 15 1.0 4.0 0.00 0.00 0.00 64 1011.3
20260505004053 62 4 1.0 5.0 0.00 0.00 0.00 64 1011.4
20260505003556 62 177 1.0 5.0 0.00 0.00 0.00 63 1011.4
20260505003054 62 4 1.0 3.0 0.00 0.00 0.00 63 1011.5
20260505002556 62 336 1.0 5.0 0.00 0.00 0.00 63 1011.6
20260505002053 62 316 2.0 6.0 0.00 0.00 0.00 61 1011.6
20260505001611 62 334 2.0 6.0 0.00 0.00 0.00 61 1011.6
20260505001055 62 350 3.0 8.0 0.00 0.00 0.00 59 1011.6
20260505000552 63 19 2.0 8.0 0.00 0.00 0.00 60 1011.6
20260505000117 62 50 1.0 5.0 0.00 0.00 0.00 62 1011.6
20260504235551 62 14 2.0 9.0 0.00 0.00 0.00 61 1011.6
20260504235052 62 4 2.0 10.0 0.00 0.00 0.00 62 1011.6
20260504234609 62 354 4.0 10.0 0.00 0.00 0.00 60 1011.7
20260504234051 62 322 1.0 10.0 0.00 0.00 0.00 63 1011.7
20260504233554 62 305 3.0 10.0 0.00 0.00 0.00 63 1011.6
20260504233103 62 349 2.0 8.0 0.00 0.00 0.00 63 1011.6
20260504232551 62 359 3.0 8.0 0.00 0.00 0.00 63 1011.6
20260504232051 63 26 3.0 8.0 0.00 0.00 0.00 63 1011.6
20260504231551 63 350 2.0 6.0 0.00 0.00 0.00 61 1011.6
20260504231050 64 359 2.0 4.0 0.00 0.00 0.00 62 1011.6
20260504230549 63 77 1.0 5.0 0.00 0.00 0.00 63 1011.5
20260504230048 63 166 2.0 5.0 0.00 0.00 0.00 63 1011.5
20260504225547 62 75 2.0 6.0 0.00 0.00 0.00 63 1011.6
20260504225050 62 68 2.0 6.0 0.00 0.00 0.00 64 1011.7
20260504224605 62 354 3.0 6.0 0.00 0.00 0.00 63 1011.7
20260504224047 63 15 2.0 4.0 0.00 0.00 0.00 63 1011.7
20260504223548 62 127 1.0 8.0 0.00 0.00 0.00 64 1011.8
20260504223048 62 12 2.0 9.0 0.00 0.00 0.00 63 1011.9
20260504222548 63 33 3.0 9.0 0.00 0.00 0.00 64 1011.9
20260504222048 63 29 1.0 5.0 0.00 0.00 0.00 65 1012.0
20260504221547 63 112 3.0 5.0 0.00 0.00 0.00 64 1012.0
20260504221046 62 209 1.0 5.0 0.00 0.00 0.00 66 1012.0
20260504220546 62 325 1.0 6.0 0.00 0.00 0.00 66 1012.1
20260504220046 62 40 3.0 6.0 0.00 0.00 0.00 66 1012.1
20260504215546 62 9 2.0 6.0 0.00 0.00 0.00 66 1012.2
20260504215045 62 338 2.0 5.0 0.00 0.00 0.00 66 1012.3
20260504214546 62 8 2.0 7.0 0.00 0.00 0.00 66 1012.3
20260504214045 62 15 2.0 7.0 0.00 0.00 0.00 66 1012.3
20260504213545 62 329 3.0 6.0 0.00 0.00 0.00 64 1012.3
20260504213104 62 4 1.0 6.0 0.00 0.00 0.00 65 1012.2
20260504212546 62 55 1.0 6.0 0.00 0.00 0.00 64 1012.2
20260504212050 63 4 2.0 4.0 0.00 0.00 0.00 64 1012.3
20260504211544 62 8 1.0 4.0 0.00 0.00 0.00 66 1012.4
20260504211042 62 335 1.0 9.0 0.00 0.00 0.00 67 1012.3
20260504210542 61 28 3.0 9.0 0.00 0.00 0.00 65 1012.3
20260504210042 61 83 3.0 9.0 0.00 0.00 0.00 65 1012.3
20260504205542 62 21 2.0 6.0 0.00 0.00 0.00 66 1012.4
20260504205045 61 33 2.0 7.0 0.00 0.00 0.00 67 1012.5
20260504204540 61 308 4.0 9.0 0.00 0.00 0.00 67 1012.5
20260504204040 61 95 2.0 9.0 0.00 0.00 0.00 68 1012.5
20260504203539 61 16 2.0 5.0 0.00 0.00 0.00 68 1012.5
20260504203039 60 354 2.0 9.0 0.00 0.00 0.00 68 1012.5
20260504202539 60 291 3.0 8.0 0.00 0.00 0.00 67 1012.4
20260504202038 60 292 2.0 8.0 0.00 0.00 0.00 67 1012.4
20260504201540 60 316 3.0 8.0 0.00 0.00 0.00 66 1012.5
20260504201039 60 312 1.0 8.0 0.00 0.00 0.00 69 1012.5
20260504200538 60 332 2.0 8.0 0.00 0.00 0.00 68 1012.6
20260504200038 59 305 2.0 9.0 0.00 0.00 0.00 69 1012.6
20260504195538 59 311 4.0 9.0 0.00 0.00 0.00 67 1012.5
20260504195041 59 297 2.0 8.0 0.00 0.00 0.00 70 1012.5
20260504194547 59 307 2.0 6.0 0.00 0.00 0.00 70 1012.5
20260504194041 59 285 3.0 6.0 0.00 0.00 0.00 69 1012.5
20260504193538 60 318 1.0 8.0 0.00 0.00 0.00 69 1012.5
20260504193049 60 322 4.0 8.0 0.00 0.00 0.00 67 1012.5
20260504192537 60 50 3.0 8.0 0.00 0.00 0.00 66 1012.5
20260504192037 60 328 3.0 8.0 0.00 0.00 0.00 62 1012.5
20260504191537 60 328 3.0 8.0 0.00 0.00 0.00 62 1012.5
20260504191038 61 321 3.0 8.0 0.00 0.00 0.00 60 1012.5
20260504190537 61 322 1.0 8.0 0.00 0.00 0.00 61 1012.6
20260504190038 61 265 3.0 7.0 0.00 0.00 0.00 60 1012.5
20260504185536 61 335 2.0 10.0 0.00 0.00 0.00 60 1012.5
20260504185036 61 297 3.0 10.0 0.00 0.00 0.00 60 1012.5
20260504184536 61 26 2.0 9.0 0.00 0.00 0.00 62 1012.4
20260504184036 61 305 2.0 9.0 0.00 0.00 0.00 61 1012.4
20260504183539 61 301 3.0 9.0 0.00 0.00 0.00 61 1012.5
20260504183035 61 35 1.0 6.0 0.00 0.00 0.00 61 1012.5
20260504182537 61 341 3.0 9.0 0.00 0.00 0.00 61 1012.5
20260504182034 61 295 3.0 9.0 0.00 0.00 0.00 61 1012.5
20260504181535 61 320 4.0 8.0 0.00 0.00 0.00 61 1012.5
20260504181034 61 329 4.0 8.0 0.00 0.00 0.00 61 1012.5
20260504180534 61 339 2.0 6.0 0.00 0.00 0.00 61 1012.4
20260504180033 61 32 3.0 9.0 0.00 0.00 0.00 61 1012.4
20260504175531 61 86 2.0 9.0 0.00 0.00 0.00 62 1012.3
20260504175033 61 316 2.0 11.0 0.00 0.00 0.00 63 1012.3
20260504174531 61 345 6.0 11.0 0.00 0.00 0.00 62 1012.3
20260504174029 61 322 5.0 10.0 0.00 0.00 0.00 65 1012.2
20260504173529 60 341 2.0 11.0 0.00 0.00 0.00 65 1012.3
20260504173035 60 319 4.0 11.0 0.00 0.00 0.00 65 1012.3
20260504172527 60 308 4.0 10.0 0.00 0.00 0.00 65 1012.3
20260504172025 60 324 5.0 10.0 0.00 0.00 0.00 65 1012.2
20260504171525 60 330 3.0 10.0 0.00 0.00 0.00 65 1012.2
20260504171026 60 47 2.0 7.0 0.00 0.00 0.00 66 1012.2
20260504170522 59 11 2.0 8.0 0.00 0.00 0.00 67 1012.2
20260504151003 57 9 2.0 9.0 0.00 0.00 0.00 75 1012.2
20260504150501 57 354 4.0 8.0 0.00 0.00 0.00 75 1012.2
20260504141052 56 332 1.0 6.0 0.00 0.00 0.00 76 1012.0
20260504140552 56 64 2.0 5.0 0.00 0.00 0.00 76 1012.0
20260504140105 56 20 2.0 4.0 0.00 0.00 0.00 76 1012.0
20260504130550 56 290 1.0 4.0 0.00 0.00 0.00 76 1011.8
20260504110540 56 310 2.0 5.0 0.00 0.00 0.00 76 1011.6
20260504100535 56 264 3.0 7.0 0.00 0.00 0.00 75 1011.1